KA9LHE Weather Reports


time (UTC)temp
C
wind
direction
speed
KPH
gust
KPH
rain 1hr
cm
rain 24hr
cm
rain mn
cm
humidity
%
barometer
mb
20260902231603 32 0 0.0 6.4 0.00 0.00 0.00 70 1014.9
20260902230106 32 0 0.0 6.4 0.00 0.00 0.00 69 1015.0
20260902224627 33 219 1.6 9.7 0.00 0.00 0.00 66 1014.8
20260902223102 33 227 3.2 11.3 0.00 0.00 0.00 66 1014.8
20260902221606 33 192 3.2 8.0 0.00 0.00 0.00 66 1014.9
20260902220117 33 195 3.2 9.7 0.00 0.00 0.00 65 1014.9
20260902214607 34 225 1.6 8.0 0.00 0.00 0.00 65 1014.9
20260902213109 34 210 4.8 11.3 0.00 0.00 0.00 64 1014.9
20260902211605 33 177 8.0 16.1 0.00 0.00 0.00 63 1014.8
20260902210108 33 190 11.3 20.9 0.00 0.00 0.00 63 1015.0
20260902204604 33 220 8.0 17.7 0.00 0.00 0.00 64 1015.2
20260902203115 33 188 8.0 17.7 0.00 0.00 0.00 65 1015.3
20260902201608 33 168 14.5 24.1 0.00 0.00 0.00 63 1015.3
20260902200109 33 187 11.3 22.5 0.00 0.00 0.00 63 1015.4
20260902194608 33 196 11.3 25.7 0.00 0.00 0.00 64 1015.5
20260902193106 33 207 12.9 25.7 0.00 0.00 0.00 64 1015.6
20260902191605 33 165 12.9 25.7 0.00 0.00 0.00 66 1015.8
20260902190107 33 159 11.3 19.3 0.00 0.00 0.00 66 1016.0
20260902184608 33 169 11.3 24.1 0.00 0.00 0.00 64 1016.0
20260902183105 33 195 12.9 22.5 0.00 0.00 0.00 64 1016.2
20260902181604 33 195 12.9 19.3 0.00 0.00 0.00 66 1016.3
20260902180108 32 187 6.4 19.3 0.00 0.00 0.00 67 1016.6
20260902174605 32 150 11.3 20.9 0.00 0.00 0.00 68 1016.8
20260902173104 32 153 11.3 19.3 0.00 0.00 0.00 70 1017.0
20260902171609 32 182 6.4 17.7 0.00 0.00 0.00 69 1017.1
20260902170104 32 183 8.0 20.9 0.00 0.00 0.00 70 1017.1
20260902164609 31 192 11.3 24.1 0.00 0.00 0.00 71 1017.1
20260902163106 31 210 6.4 14.5 0.00 0.00 0.00 71 1017.3
20260902161607 31 276 4.8 14.5 0.00 0.00 0.00 73 1017.4
20260902160119 31 197 4.8 14.5 0.00 0.00 0.00 73 1017.5
20260902154605 30 211 4.8 12.9 0.00 0.00 0.00 76 1017.6
20260902153119 30 217 4.8 16.1 0.00 0.00 0.00 76 1017.4
20260902151614 29 240 6.4 14.5 0.00 0.00 0.00 76 1017.4
20260902150104 29 236 8.0 19.3 0.00 0.00 0.00 77 1017.4
20260902144607 28 227 4.8 16.1 0.00 0.00 0.00 79 1017.3
20260902143110 28 223 8.0 17.7 0.00 0.00 0.00 79 1017.3
20260902141602 28 186 6.4 14.5 0.00 0.00 0.00 81 1017.2
20260902134611 26 192 4.8 11.3 0.00 0.00 0.00 84 1017.5
20260902133108 26 0 0.0 0.0 0.00 0.00 0.00 86 1017.5
20260902131607 25 0 0.0 0.0 0.00 0.00 0.00 89 1017.4
20260902130114 24 0 0.0 0.0 0.00 0.00 0.00 91 1017.5
20260902124606 23 0 0.0 0.0 0.00 0.00 0.00 93 1017.4
20260902123104 23 0 0.0 0.0 0.00 0.00 0.00 95 1017.4
20260902121602 22 0 0.0 0.0 0.00 0.00 0.00 95 1017.5
20260902120106 22 0 0.0 0.0 0.00 0.00 0.00 95 1017.4
20260902114604 22 0 0.0 0.0 0.00 0.00 0.00 95 1017.4
20260902113106 22 0 0.0 0.0 0.00 0.00 0.00 95 1017.3
20260902111602 22 0 0.0 0.0 0.00 0.00 0.00 94 1017.2
20260902110105 22 0 0.0 0.0 0.00 0.00 0.00 94 1017.1
20260902104623 22 0 0.0 0.0 0.00 0.00 0.00 94 1017.1
20260902103104 22 0 0.0 0.0 0.00 0.00 0.00 94 1016.9
20260902101602 22 0 0.0 0.0 0.00 0.00 0.00 94 1016.8
20260902100128 23 0 0.0 0.0 0.00 0.00 0.00 94 1016.7
20260902094607 23 0 0.0 0.0 0.00 0.00 0.00 94 1016.6
20260902093122 23 0 0.0 0.0 0.00 0.00 0.00 95 1016.5
20260902091614 23 0 0.0 0.0 0.00 0.00 0.00 94 1016.4
20260902090106 23 0 0.0 0.0 0.00 0.00 0.00 94 1016.4
20260902084612 23 0 0.0 0.0 0.00 0.00 0.00 94 1016.5
20260902083111 23 0 0.0 0.0 0.00 0.00 0.00 94 1016.4
20260902081620 23 0 0.0 0.0 0.00 0.00 0.00 94 1016.4
20260902080110 23 0 0.0 0.0 0.00 0.00 0.00 94 1016.3
20260902074606 23 0 0.0 0.0 0.00 0.00 0.00 94 1016.5
20260902073113 23 0 0.0 0.0 0.00 0.00 0.00 94 1016.4
20260902071632 24 0 0.0 0.0 0.00 0.00 0.00 94 1016.3
20260902070113 24 0 0.0 0.0 0.00 0.00 0.00 94 1016.4
20260902064612 24 0 0.0 0.0 0.00 0.00 0.00 93 1016.3
20260902063133 25 0 0.0 0.0 0.00 0.00 0.00 92 1016.3
20260902060140 25 0 0.0 0.0 0.00 0.00 0.00 90 1016.5
20260902054620 25 0 0.0 0.0 0.00 0.00 0.00 91 1016.6
20260902053119 25 0 0.0 0.0 0.00 0.00 0.00 91 1016.5
20260902051615 25 0 0.0 0.0 0.00 0.00 0.00 91 1016.3
20260902050110 25 0 0.0 0.0 0.00 0.00 0.00 92 1016.4
20260902044629 25 0 0.0 0.0 0.00 0.00 0.00 92 1016.4
20260902043124 25 0 0.0 0.0 0.00 0.00 0.00 92 1016.2
20260902041602 25 0 0.0 0.0 0.00 0.00 0.00 92 1016.4
20260902040103 25 0 0.0 0.0 0.00 0.00 0.00 93 1016.4
20260902034604 25 0 0.0 0.0 0.00 0.00 0.00 93 1016.3
20260902033117 25 0 0.0 0.0 0.00 0.00 0.00 93 1016.2
20260902031607 25 0 0.0 0.0 0.00 0.00 0.00 93 1016.2
20260902030104 26 0 0.0 0.0 0.00 0.00 0.00 94 1016.2
20260902024620 26 0 0.0 0.0 0.00 0.00 0.00 94 1016.5
20260902023109 26 0 0.0 0.0 0.00 0.00 0.00 94 1016.4
20260902021616 26 0 0.0 0.0 0.00 0.00 0.00 93 1016.4
20260902020144 26 0 0.0 0.0 0.00 0.00 0.00 92 1016.4
20260902014604 27 0 0.0 0.0 0.00 0.08 0.00 92 1016.3
20260902013115 27 0 0.0 0.0 0.00 0.08 0.00 90 1016.3
20260902011604 27 0 0.0 0.0 0.00 0.08 0.00 89 1016.2
20260902010104 28 0 0.0 0.0 0.00 0.08 0.00 89 1016.0
20260902004607 28 0 0.0 0.0 0.00 0.08 0.00 86 1015.9
20260902003106 29 0 0.0 0.0 0.00 0.08 0.00 86 1015.8
20260902001604 30 0 0.0 0.0 0.00 0.08 0.00 85 1015.9
20260902000105 30 0 0.0 0.0 0.00 0.08 0.00 84 1016.1
20260901234612 31 0 0.0 0.0 0.00 0.08 0.00 83 1016.1
20260901233105 31 0 0.0 0.0 0.00 0.08 0.00 79 1016.2